{"data":{"norad_id":55800,"epoch":"2026-05-25T02:41:22.307136Z","epoch_age_seconds":76030,"freshness":"FRESH","line1":"1 55800U 23029E   26145.11206374  .00000118  00000+0  25923-3 0  9999","line2":"2 55800  87.9165 279.0834 0001723  93.4399 266.6931 13.20770741158097","mean_motion":13.20770741,"eccentricity":0.0001723,"inclination_deg":87.9165,"raan_deg":279.0834,"arg_perigee_deg":93.4399,"mean_anomaly_deg":266.6931,"bstar":0.00025923,"rev_number":15809,"period_min":109.02724865859,"perigee_km":1180.4748898695,"apogee_km":1183.0800363935,"semimajor_km":7559.9144631315,"source":"CELESTRAK","updated_at":"2026-05-25T13:38:22.688440Z"}}